Tracking 19245 objects as of 17-Aug-2018
HD Live streaming from Space Station
objects crossing your sky now

FENGYUN 1C DEB

Track FENGYUN 1C DEB now!
10-day predictions


NORAD ID: 30322
Int'l Code: 1999-025AAK
Perigee: 809.8 km
Apogee: 1,013.2 km
Inclination: 98.4 °
Period: 103.1 minutes
Semi major axis: 7282 km
RCS: 0.0387 m2 (small)
Launch date: May 10, 1999
Source: People's Republic of China (PRC)
Launch site: Taiyaun Space Center, China (TSC)

Note: This is SATELLITE DEBRIS
aabbcc
Your satellite tracking list
Your tracking list is empty




NASA's NSSDC Master Catalog

Two Line Element Set (TLE):
1 30322U 99025AAK 18229.03292019  .00000491  00000-0  35060-3 0  9994
2 30322  98.4021 261.2004 0139679 208.9165 150.4209 13.96947488589223
Source of the keplerian elements: AFSPC